This demonstration page uses our WeatherBlox Daily Observations layout. Learn more.

Left ArrowRight Arrow

Hourly Observations for March 18, 2018

Temp ( °F °C ) Dew Point ( °F °C ) Humidity (%) Winds ( mph kmh ) Pressure ( in mb ) Visibility ( mi km ) Precip ( " mm )
12:59 am 00:59 Cloudy with Light Rain 43 6.1 36 2.2 76 76 NNE 3 6 29.86 1011 10 16 0.02 0.51
1:59 am 01:59 Cloudy with Light Rain 41 5 36 2.2 82 82 SSE 5 7 29.85 1011 8 13 0.05 1.27
2:59 am 02:59 Cloudy with Light Rain 41 5 39 3.9 93 93 Calm 29.88 1012 6 10 0.06 1.52
3:59 am 03:59 Cloudy with Light Rain 41 5 39 3.9 93 93 Calm 29.87 1011 9 14 0.01 0.25
4:59 am 04:59 Mostly Cloudy 42 5.6 35 1.7 76 76 NE 10 17 29.84 1011 10 16 0.00 0.03
5:59 am 05:59 Cloudy 43 6.1 34 1.1 71 71 NNE 13 20 29.88 1012 10 16 0.01 0.25
6:59 am 06:59 Cloudy 43 6.1 34 1.1 71 71 N 15 24 29.91 1013 10 16 0.00 0.00
7:59 am 07:59 Cloudy 43 6.1 31 -0.6 63 63 N 17 28 29.93 1014 10 16 0.00 0.00
8:59 am 08:59 Partly Cloudy 43 6.1 30 -1.1 60 60 N 17 28 29.96 1014 10 16 0.00 0.00
9:59 am 09:59 Mostly Sunny 44 6.7 31 -0.6 60 60 N 15 24 29.99 1016 10 16 0.00 0.00
10:59 am 10:59 Sunny 45 7.2 30 -1.1 56 56 N 17 28 30.01 1016 10 16 0.00 0.00
11:59 am 11:59 Sunny 46 7.8 30 -1.1 54 54 N 17 28 30.03 1017 10 16 0.00 0.00
12:59 pm 12:59 Sunny 47 8.3 25 -3.9 42 42 N 14 22 30.03 1017 10 16 0.00 0.00
1:59 pm 13:59 Sunny 47 8.3 24 -4.4 41 41 NE 12 19 30.01 1016 10 16 0.00 0.00
2:59 pm 14:59 Sunny 48 8.9 24 -4.4 39 39 NE 7 11 29.98 1015 10 16 0.00 0.00
3:59 pm 15:59 Sunny 50 10 26 -3.3 39 39 NNE 6 9 29.97 1015 10 16 0.00 0.00
4:59 pm 16:59 Sunny 51 10.6 28 -2.2 41 41 NE 5 7 29.97 1015 10 16 0.00 0.00
5:59 pm 17:59 Sunny 51 10.6 27 -2.8 39 39 ENE 5 7 29.97 1015 10 16 0.00 0.00
6:59 pm 18:59 Sunny 47 8.3 26 -3.3 44 44 E 6 9 29.96 1015 10 16 0.00 0.00
7:59 pm 19:59 Mostly Clear 42 5.6 29 -1.7 60 60 ESE 5 7 29.96 1015 10 16 0.00 0.00
8:59 pm 20:59 Clear 42 5.6 26 -3.3 53 53 SE 5 7 29.97 1015 10 16 0.00 0.00
9:59 pm 21:59 Mostly Clear 42 5.6 26 -3.3 53 53 S 5 7 29.98 1015 10 16 0.00 0.00
10:59 pm 22:59 Mostly Clear 43 6.1 30 -1.1 60 60 S 7 11 29.98 1015 10 16 0.00 0.00
11:59 pm 23:59 Clear 41 5 30 -1.1 65 65 SSE 7 11 29.97 1015 10 16 0.00 0.00

Powered by AerisWeather